SCP
0 -0 0 0 0 0 -0 -0 -0 -0 -0 0 -0 -0 -0 -0 -0 0 -0 -0 -0 -0 -0 -0 0 -0 -0 -0 -0 -0 -0 0 0 0 0 0 0 0 0 0 0 0 0 0 0 -0 -0 -0 -0
0 0 0 0 -0 0 -0 -0 -0 -0 -0 -0 -0 -0 0 -0 -0 -0 -0 -0 0 -0 -0 -0 0 -0 -0 -0 -0 -0 -0 0 0 0 0 0 0 0 0 0 0 0 0 0 0 0 0 -0 -0
0 0 0 -0 0 0 -0 -0 -0 -0 -0 -0 -0 -0 0 -0 -0 -0 -0 -0 -0 -0 -0 -0 -0 -0 -0 -0 -0 0 0 0 0 0 0 0 0 0 0 0 0 0 0 0 0 0 0 0 0
0 0 0 0 0 -0 -0 -0 0 0 0 0 -0 0 -0 -0 -0 -0 -0 -0 -0 -0 -0 -0 0 -0 -0 -0 -0 -0 0 0 0 0 0 0 0 0 0 0 0 0 0 0 0 0 0 0 0
0 0 0 0 0 -0 0 0 0 0 0 0 0 -0 -0 -0 -0 -0 -0 -0 -0 -0 -0 -0 -0 -0 -0 -0 -0 0 0 0 0 0 0 0 0 0 0 0 0 0 0 0 0 0 0 0 0
0 0 0 -0 0 -0 -0 -0 0 0 0 0 0 -0 -0 -0 -0 -0 -0 0 0 -0 -0 0 0 -0 -0 -0 -0 0 0 0 0 0 0 0 0 0 0 0 0 0 0 0 0 0 0 0 0
0 0 0 -0 -0 -0 -0 0 0 0 0 0 -0 -0 -0 -0 -0 -0 0 0 -0 0 -0 0 0 -0 0 0 -0 0 0 0 0 0 0 0 0 0 0 0 0 0 0 0 0 0 0 0 0
0 0 -0 -0 -0 -0 -0 -0 -0 0 -0 -0 0 0 -0 -0 -0 -0 -0 0 0 0 0 0 0 -0 0 0 0 0 0 0 0 0 0 0 0 0 0 0 0 0 0 0 0 0 0 0 0
0 0 -0 0 -0 -0 -0 -0 0 -0 0 0 0 0 -0 -0 -0 -0 -0 0 -0 0 0 -0 0 -0 -0 0 0 0 0 0 0 0 0 0 0 -0 -0 -0 0 0 0 0 0 0 0 -0 -0
-0 0 -0 0 -0 -0 -0 0 0 0 0 0 0 -0 -0 -0 -0 -0 0 0 0 0 -0 -0 0 0 0 0 0 0 0 0 0 0 0 -0 -0 0 0 -0 0 0 0 -0 -0 -0 -0 -0 -0
-0 0 0 -0 0 -0 -0 0 0 0 0 -0 -0 -0 -0 -0 -0 -0 -0 0 -0 -0 -0 -0 0 0 0 0 0 0 0 0 0 0 0 -0 0 0 0 -0 0 0 0 0 -0 -0 -0 0 0
-0 0 -0 0 -0 -0 0 -0 0 0 0 -0 -0 -0 -0 -0 -0 -0 -0 -0 -0 -0 0 0 0 0 0 0 0 0 0 0 0 0 0 0 0 -0 0 0 0 0 0 0 0 0 -0 -0 -0
-0 -0 -0 -0 0 -0 -0 0 0 -0 -0 -0 -0 -0 -0 -0 -0 -0 -0 -0 -0 -0 -0 -0 0 0 0 0 0 0 0 0 0 -0 0 0 0 0 -0 0 0 0 0 -0 0 0 0 -0 -0
0 -0 -0 -0 -0 -0 0 0 0 -0 -0 -0 -0 -0 -0 -0 -0 -0 -0 -0 -0 -0 -0 -0 -0 0 0 0 0 0 0 0 0 0 0 0 0 0 0 0 0 -0 0 0 0 0 -0 -0 -0
-0 -0 -0 -0 -0 0 -0 -0 0 -0 -0 -0 -0 -0 -0 -0 -0 -0 -0 -0 -0 -0 -0 -0 -0 0 0 0 0 0 0 0 0 0 0 0 0 0 0 0 0 0 0 0 -0 0 0 0 -0
-0 -0 0 -0 -0 -0 -0 -0 -0 -0 -0 -0 -0 -0 -0 -0 -0 -0 -0 -0 -0 -0 -0 -0 -0 -0 0 0 0 0 0 0 0 0 0 0 0 0 0 0 0 0 0 0 0 0 0 0 0
-0 0 -0 -0 0 0 -0 -0 0 -0 0 -0 -0 -0 -0 -0 -0 -0 -0 -0 -0 0 0 0 0 0 0 0 0 0 0 0 0 0 0 0 0 0 0 0 0 0 0 0 0 0 0 0 0
-0 -0 -0 -0 0 -0 -0 -0 0 0 -0 -0 -0 -0 -0 -0 -0 -0 -0 -0 -0 0 0 0 0 0 0 0 0 0 0 0 0 0 0 0 0 0 0 0 0 0 0 0 1 1 0 0 0
-0 -0 -0 0 0 -0 -0 -0 -0 -0 -0 -0 -0 -0 -0 -0 -0 -0 -0 -0 -0 0 0 0 0 0 0 0 0 0 0 0 0 0 0 1 0 0 1 0 0 0 1 2 1 1 1 1 0
0 -0 -0 -0 0 -0 0 0 0 0 -0 0 -0 -0 -0 -0 -0 -0 -0 -0 -0 -0 0 0 0 0 0 0 0 0 0 0 0 0 0 0 1 1 1 1 0 1 1 1 1 1 0 0 0
-0 -0 -0 -0 0 -0 -0 -0 -0 0 -0 0 -0 -0 -0 -0 -0 -0 -0 -0 -0 -0 0 0 0 0 0 0 0 0 0 0 0 0 0 1 1 1 1 2 2 2 2 2 1 0 0 0 0
0 -0 0 0 0 0 -0 0 -0 -0 0 0 0 -0 -0 0 0 0 0 0 0 0 0 0 0 0 0 0 0 0 0 0 0 0 1 5 4 3 2 1 2 2 1 2 1 0 0 0 0
-0 -0 -0 -0 -0 -0 -0 0 0 0 0 0 0 0 0 -0 0 0 0 0 0 0 0 0 1 1 1 1 0 1 0 0 0 2 3 3 2 2 1 2 1 2 1 1 1 1 1 0 0
0 0 0 0 0 -0 0 0 -0 0 0 0 0 0 0 -0 0 -0 0 1 0 1 1 0 1 3 1 2 1 2 1 0 2 3 2 1 1 1 1 2 2 1 1 1 1 1 1 1 0
-0 -0 0 -0 -0 0 0 0 0 0 0 0 0 0 0 0 0 0 0 0 1 1 0 2 3 2 2 3 3 2 3 3 2 2 2 1 2 3 1 1 1 1 1 1 0 0 0 0 0
-0 -0 -0 0 0 -0 0 0 0 0 0 0 0 0 -0 0 0 0 0 0 0 1 1 1 2 3 2 2 1 2 3 3 4 1 0 0 1 1 0 0 0 0 0 0 0 0 0 -0 0
0 -0 -0 -0 -0 -0 0 0 0 0 0 0 0 0 0 0 0 0 1 2 3 2 2 1 1 1 2 3 1 2 1 1 0 0 0 0 0 0 0 0 0 0 0 0 0 0 0 0 0
-0 0 -0 0 0 0 0 0 0 0 0 0 0 0 0 0 0 0 1 2 1 1 1 0 1 2 2 2 2 0 0 0 0 0 0 -0 -0 0 0 0 0 0 0 0 0 0 0 0 0
0 -0 0 -0 -0 0 0 0 0 0 0 0 0 0 0 0 1 0 1 3 2 2 1 1 1 1 1 2 2 1 0 0 0 -0 0 0 0 0 0 0 0 0 0 0 0 0 0 0 0
0 0 0 -0 -0 -0 -0 0 0 0 0 0 0 0 0 1 1 1 1 1 1 1 1 1 1 1 1 1 1 0 0 0 0 0 0 0 0 0 0 -0 0 0 0 0 0 0 0 0 0
Wind_Speed_500mb
4 12 15 14 8 4 21 22 25 23 21 9 20 4 25 27 27 11 46 30 36 31 27 27 23 22 21 21 21 20 21 21 16 11 12 16 19 19 19 19 18 18 20 20 17 16 15 14 15
4 16 14 16 6 3 14 22 20 17 24 25 14 14 5 24 20 44 38 38 37 30 21 24 23 22 22 21 22 21 19 19 15 12 15 17 19 20 19 20 19 19 21 23 26 26 23 21 18
1 13 20 18 9 8 21 23 22 23 24 18 12 15 7 21 38 33 37 39 34 28 27 26 23 23 24 22 21 19 20 19 17 18 19 20 21 19 16 20 19 21 22 23 25 26 26 25 23
8 12 17 3 26 27 28 23 24 24 18 10 14 21 18 29 26 29 43 38 33 29 31 23 25 26 26 24 22 21 22 21 20 21 20 19 18 16 16 19 20 18 21 22 22 21 20 20 19
9 14 11 10 25 30 25 22 16 17 14 16 7 22 34 22 25 40 39 35 32 28 20 26 27 25 23 23 24 22 21 20 20 20 20 19 17 18 17 15 14 16 18 18 16 16 15 14 14
21 11 8 14 26 20 20 16 9 16 19 19 19 35 26 24 37 38 36 33 28 29 20 22 27 24 23 22 21 22 22 20 21 20 19 16 21 19 15 15 15 17 17 15 12 11 12 10 11
31 10 6 20 21 21 18 2 14 19 17 17 28 24 25 33 37 37 36 32 28 25 28 22 23 25 22 22 22 23 22 22 22 22 17 21 21 17 16 16 17 18 18 16 13 9 6 5 6
21 12 9 14 16 27 17 18 7 14 27 26 14 12 33 40 39 35 34 31 29 28 24 24 24 22 21 22 24 23 23 19 21 19 21 22 19 17 19 19 18 18 16 12 8 5 3 3 4
10 3 9 6 21 22 19 20 11 15 24 15 5 11 39 42 41 36 34 32 30 28 26 27 22 28 25 22 23 24 24 20 20 22 22 22 14 14 10 11 10 12 10 5 4 5 5 3 5
14 9 22 17 8 23 12 19 19 22 19 17 14 29 37 41 40 38 36 34 32 31 28 28 24 25 26 20 23 19 17 17 16 16 19 18 15 13 12 8 7 5 5 6 10 10 8 10 24
20 9 19 10 13 22 16 22 8 20 12 25 26 37 37 38 35 35 33 32 32 32 31 31 28 27 23 26 17 20 18 18 17 20 19 13 17 13 12 6 3 1 5 8 15 16 13 16 22
25 13 11 10 16 20 11 18 13 14 18 17 32 39 39 36 35 33 31 31 32 32 31 31 31 30 28 25 21 21 21 21 17 18 26 19 21 17 18 15 10 12 6 4 8 7 12 7 11
7 21 14 15 10 20 15 6 15 13 8 20 32 38 37 34 30 28 28 29 32 35 34 32 32 33 30 26 26 22 21 21 19 20 24 18 17 16 14 10 9 8 7 9 14 11 12 14 18
5 15 18 19 15 16 16 14 13 16 14 24 31 34 34 32 29 27 26 30 33 32 34 35 35 35 32 33 29 30 26 20 21 19 18 24 16 13 11 14 3 9 9 9 10 14 9 16 22
16 10 20 25 20 16 23 6 19 23 20 26 29 30 30 29 28 27 27 29 31 31 32 35 34 33 35 34 33 29 26 23 25 22 24 26 21 16 17 8 11 12 13 18 12 10 10 16 21
23 23 14 14 21 14 21 28 27 27 24 29 27 29 31 32 31 29 29 30 29 28 33 35 33 34 34 32 32 28 26 25 23 22 21 25 23 24 15 14 13 16 11 7 5 6 11 15 18
19 15 40 30 21 7 16 13 9 28 21 27 33 32 32 34 34 33 32 31 30 29 32 36 35 35 36 35 29 30 30 30 26 24 22 22 19 18 19 13 12 19 7 9 8 6 12 16 19
28 13 14 14 6 17 21 20 16 16 30 25 31 34 34 36 39 39 37 34 32 30 29 32 33 35 38 34 34 30 29 28 27 27 26 23 19 19 19 17 16 13 12 12 16 17 14 14 20
16 2 24 15 2 9 16 19 20 23 21 27 32 39 38 37 39 41 41 40 38 35 33 34 35 37 38 35 35 35 33 28 27 27 28 24 28 21 20 19 19 20 21 25 23 8 12 10 25
6 37 34 16 3 11 14 21 14 13 21 22 34 40 40 40 41 44 46 46 45 42 39 37 39 41 41 36 35 35 31 29 27 26 28 27 24 23 24 24 22 33 3 19 16 18 23 30 33
32 13 19 22 18 15 11 31 20 14 5 8 19 24 35 45 45 47 51 51 49 48 46 45 45 45 41 41 36 34 31 30 30 29 27 28 29 27 28 24 37 37 23 14 15 20 32 48 46
18 13 18 21 22 8 13 12 24 45 18 6 11 16 28 39 44 46 51 55 54 52 50 50 53 53 45 47 40 44 36 32 31 27 33 34 34 34 27 31 30 24 17 21 26 36 40 35 38
18 13 18 17 27 27 27 15 14 35 23 14 9 3 18 31 41 48 55 57 55 52 52 51 55 54 53 51 50 43 42 30 27 31 30 34 31 32 27 23 28 31 30 31 30 42 30 20 28
13 26 27 25 26 13 19 17 25 25 23 26 33 28 14 22 32 40 44 47 53 49 52 52 56 63 61 53 55 54 40 39 24 24 31 18 17 24 28 29 32 37 39 34 33 33 36 35 31
21 32 14 15 13 15 20 15 20 23 22 21 20 26 25 17 17 29 38 39 48 51 51 49 48 51 44 57 56 60 58 41 39 35 29 22 23 23 29 30 35 38 41 40 31 25 21 29 27
25 20 15 16 19 21 10 3 7 13 13 10 18 12 11 15 11 19 25 36 38 38 35 48 52 50 47 36 55 53 54 36 41 41 29 26 26 25 23 24 29 27 28 28 19 15 22 25 24
7 16 28 20 29 22 8 12 15 18 13 23 30 26 23 9 13 10 15 9 18 21 34 40 48 52 55 43 56 64 40 36 46 43 16 31 31 31 41 47 42 22 20 17 22 19 17 23 17
22 24 24 13 14 16 16 21 5 16 24 24 26 38 16 10 10 8 12 16 17 20 25 33 39 42 43 45 46 53 42 26 11 29 31 8 22 25 41 34 38 37 29 29 23 20 20 24 19
8 25 17 22 12 21 21 14 21 21 20 24 31 32 26 19 9 10 13 14 18 19 19 24 37 44 49 54 64 62 64 22 28 35 42 35 44 47 39 27 28 28 22 21 20 20 22 23 22
20 27 27 20 22 22 22 27 8 2 15 21 33 23 20 15 5 11 14 16 18 21 23 26 34 43 49 62 61 60 60 38 48 60 54 54 50 39 33 35 27 20 24 23 24 22 21 21 23
Wind_Direction_500mb
310 320 288 265 254 147 67 112 96 106 116 91 91 351 48 25 8 63 135 141 144 145 157 150 145 145 142 144 146 150 160 161 157 147 138 137 137 131 126 117 113 108 105 108 109 121 132 121 121
274 262 263 293 24 352 95 85 108 87 97 108 111 120 64 65 70 125 129 143 140 147 147 146 141 148 146 140 139 146 147 155 162 156 143 138 131 123 117 112 106 110 116 106 103 99 111 112 113
272 271 274 130 243 42 95 85 86 95 128 152 110 35 32 94 116 130 140 139 136 138 152 172 141 146 143 140 140 143 146 147 146 146 143 140 123 121 119 123 120 127 122 105 102 101 103 103 102
302 246 250 327 68 78 93 96 114 125 134 163 113 93 90 127 122 138 139 140 140 142 155 163 147 148 141 141 143 149 148 149 150 145 141 133 128 124 115 118 115 120 125 109 103 96 95 96 97
290 267 271 92 88 85 79 86 112 124 131 140 168 117 119 123 129 137 141 142 142 146 150 158 148 146 146 146 152 150 148 147 145 148 144 137 141 139 127 133 132 132 127 120 112 100 94 91 92
246 263 298 124 94 107 95 99 108 100 125 118 117 123 127 141 143 144 144 145 147 149 145 154 148 150 153 161 150 153 150 155 153 151 147 146 134 128 133 131 132 133 130 129 122 107 93 71 60
269 219 119 110 118 112 94 5 99 109 125 142 138 135 137 151 154 152 150 149 152 154 155 158 157 159 161 156 159 160 158 150 151 153 159 152 144 145 137 129 128 129 127 125 121 115 109 85 70
251 270 111 139 136 106 111 86 89 94 77 123 162 146 161 159 158 156 154 155 158 160 161 161 168 161 160 168 167 164 162 162 167 167 162 153 144 140 124 119 119 120 120 120 116 98 88 88 27
244 267 253 83 46 116 142 122 94 91 122 147 71 144 152 159 159 159 161 163 165 166 167 167 173 162 164 171 171 169 165 166 162 164 161 145 136 131 146 133 140 125 115 87 34 5 339 357 68
151 273 90 48 14 112 156 119 112 134 156 134 136 112 144 159 165 168 171 172 172 172 172 174 166 173 166 175 194 166 177 171 161 166 174 139 161 162 160 195 159 131 110 51 4 349 338 342 287
101 81 62 52 91 123 130 106 164 97 219 125 147 146 154 162 172 177 179 177 177 177 177 176 176 178 168 176 178 175 184 181 183 178 179 156 187 192 173 223 198 5 354 5 347 330 332 296 305
350 81 95 145 140 137 146 124 118 63 51 116 151 158 162 169 174 177 183 180 180 180 182 181 181 181 179 182 178 182 181 187 187 192 178 190 166 191 179 197 191 210 244 299 334 322 299 291 282
69 121 145 135 164 126 130 184 90 119 90 125 150 162 168 175 176 179 182 185 185 185 184 185 186 186 184 183 189 184 190 188 186 200 202 184 180 192 210 194 198 230 259 295 323 315 307 284 280
99 200 139 156 158 155 189 169 219 131 155 143 161 173 177 179 181 180 185 185 186 189 190 189 190 187 183 188 187 189 190 198 189 197 211 186 189 221 209 235 228 259 260 276 289 267 270 293 314
249 189 163 170 172 174 243 230 197 136 169 164 175 181 185 188 187 187 187 183 187 190 191 193 191 191 187 188 189 190 195 192 192 188 203 212 206 229 197 237 252 270 273 288 343 333 301 293 294
236 186 44 286 189 158 252 205 257 145 176 177 187 187 192 193 194 193 189 189 188 190 190 190 191 196 192 194 193 189 191 191 194 196 211 210 210 203 231 226 249 255 264 247 273 315 291 289 286
294 128 247 219 198 168 240 316 142 157 191 192 185 193 198 198 200 195 192 190 190 189 191 190 191 195 195 197 195 189 191 186 198 199 204 234 215 226 222 226 246 262 226 226 258 319 303 311 312
231 49 281 269 291 198 242 268 282 178 183 216 195 196 201 205 202 198 198 195 192 191 193 194 195 191 199 198 187 193 200 199 198 205 199 209 220 220 226 224 230 243 245 242 237 250 276 273 307
14 321 21 290 141 289 262 259 261 206 193 208 203 194 203 209 205 202 202 200 197 195 192 194 195 196 197 196 194 193 197 206 209 212 211 217 211 219 237 219 236 255 219 234 249 286 319 300 273
258 36 278 59 69 304 293 321 275 219 206 219 212 199 200 206 212 204 203 203 203 201 199 196 196 201 199 200 200 200 205 210 213 220 220 220 222 222 230 236 233 251 273 267 264 281 283 291 288
325 10 4 331 312 261 284 354 153 132 290 211 246 239 210 206 207 204 204 207 207 206 204 203 202 209 209 194 203 207 212 220 219 221 220 234 227 226 231 231 240 243 243 249 254 295 298 291 291
165 5 321 329 305 174 236 169 25 321 137 162 244 252 249 219 214 208 204 207 213 212 211 208 208 211 214 203 203 204 210 217 226 231 228 205 218 237 234 239 237 246 213 256 276 290 297 310 291
28 325 299 291 280 94 266 311 180 218 36 54 72 267 263 251 229 218 204 210 215 216 215 214 218 212 210 219 200 212 206 213 222 222 223 229 238 247 244 238 250 252 262 272 284 282 263 297 281
313 273 253 239 247 120 56 339 92 56 36 27 15 358 349 294 241 235 224 208 214 210 213 217 214 222 220 219 223 206 216 213 230 224 233 230 242 260 245 246 251 259 261 265 283 266 256 275 270
236 286 268 245 220 66 48 313 19 54 52 42 20 8 357 332 265 238 238 231 205 214 215 217 212 222 227 213 225 218 208 212 230 236 247 229 221 223 247 250 247 249 254 260 259 238 237 275 270
306 344 305 313 323 346 264 279 39 82 113 93 21 29 3 352 296 259 235 229 226 185 202 212 211 214 224 239 233 213 214 229 235 230 221 228 221 247 275 269 251 246 243 230 233 249 230 268 259
305 260 1 306 267 288 320 23 300 103 180 17 6 345 358 11 336 293 240 232 223 231 222 216 221 222 224 233 226 224 227 220 242 243 272 306 263 247 274 270 251 256 246 281 278 273 248 232 226
260 325 296 259 286 293 326 312 315 3 347 5 333 328 357 346 310 263 235 232 233 230 229 218 209 213 215 200 208 217 216 188 248 306 235 48 276 272 280 261 257 236 233 270 253 215 208 190 183
217 238 202 256 306 288 283 303 13 29 350 324 320 329 3 334 289 254 229 227 225 228 230 220 212 209 206 208 209 207 207 212 240 197 197 221 250 271 256 246 240 232 246 236 218 207 193 190 192
282 285 293 292 293 289 309 301 44 210 313 325 322 4 350 333 252 231 235 239 244 238 223 210 221 219 214 215 213 203 197 219 216 221 228 243 245 245 228 225 243 247 229 217 204 205 212 216 218
Wind_Speed_850mb
4 12 15 14 8 4 21 22 25 23 21 9 20 4 25 27 27 11 46 30 36 31 27 27 23 22 21 21 21 20 21 21 16 11 12 16 19 19 19 19 18 18 20 20 17 16 15 14 15
4 16 14 16 6 3 14 22 20 17 24 25 14 14 5 24 20 44 38 38 37 30 21 24 23 22 22 21 22 21 19 19 15 12 15 17 19 20 19 20 19 19 21 23 26 26 23 21 18
1 13 20 18 9 8 21 23 22 23 24 18 12 15 7 21 38 33 37 39 34 28 27 26 23 23 24 22 21 19 20 19 17 18 19 20 21 19 16 20 19 21 22 23 25 26 26 25 23
8 12 17 3 26 27 28 23 24 24 18 10 14 21 18 29 26 29 43 38 33 29 31 23 25 26 26 24 22 21 22 21 20 21 20 19 18 16 16 19 20 18 21 22 22 21 20 20 19
9 14 11 10 25 30 25 22 16 17 14 16 7 22 34 22 25 40 39 35 32 28 20 26 27 25 23 23 24 22 21 20 20 20 20 19 17 18 17 15 14 16 18 18 16 16 15 14 14
21 11 8 14 26 20 20 16 9 16 19 19 19 35 26 24 37 38 36 33 28 29 20 22 27 24 23 22 21 22 22 20 21 20 19 16 21 19 15 15 15 17 17 15 12 11 12 10 11
31 10 6 20 21 21 18 2 14 19 17 17 28 24 25 33 37 37 36 32 28 25 28 22 23 25 22 22 22 23 22 22 22 22 17 21 21 17 16 16 17 18 18 16 13 9 6 5 6
21 12 9 14 16 27 17 18 7 14 27 26 14 12 33 40 39 35 34 31 29 28 24 24 24 22 21 22 24 23 23 19 21 19 21 22 19 17 19 19 18 18 16 12 8 5 3 3 4
10 3 9 6 21 22 19 20 11 15 24 15 5 11 39 42 41 36 34 32 30 28 26 27 22 28 25 22 23 24 24 20 20 22 22 22 14 14 10 11 10 12 10 5 4 5 5 3 5
14 9 22 17 8 23 12 19 19 22 19 17 14 29 37 41 40 38 36 34 32 31 28 28 24 25 26 20 23 19 17 17 16 16 19 18 15 13 12 8 7 5 5 6 10 10 8 10 24
20 9 19 10 13 22 16 22 8 20 12 25 26 37 37 38 35 35 33 32 32 32 31 31 28 27 23 26 17 20 18 18 17 20 19 13 17 13 12 6 3 1 5 8 15 16 13 16 22
25 13 11 10 16 20 11 18 13 14 18 17 32 39 39 36 35 33 31 31 32 32 31 31 31 30 28 25 21 21 21 21 17 18 26 19 21 17 18 15 10 12 6 4 8 7 12 7 11
7 21 14 15 10 20 15 6 15 13 8 20 32 38 37 34 30 28 28 29 32 35 34 32 32 33 30 26 26 22 21 21 19 20 24 18 17 16 14 10 9 8 7 9 14 11 12 14 18
5 15 18 19 15 16 16 14 13 16 14 24 31 34 34 32 29 27 26 30 33 32 34 35 35 35 32 33 29 30 26 20 21 19 18 24 16 13 11 14 3 9 9 9 10 14 9 16 22
16 10 20 25 20 16 23 6 19 23 20 26 29 30 30 29 28 27 27 29 31 31 32 35 34 33 35 34 33 29 26 23 25 22 24 26 21 16 17 8 11 12 13 18 12 10 10 16 21
23 23 14 14 21 14 21 28 27 27 24 29 27 29 31 32 31 29 29 30 29 28 33 35 33 34 34 32 32 28 26 25 23 22 21 25 23 24 15 14 13 16 11 7 5 6 11 15 18
19 15 40 30 21 7 16 13 9 28 21 27 33 32 32 34 34 33 32 31 30 29 32 36 35 35 36 35 29 30 30 30 26 24 22 22 19 18 19 13 12 19 7 9 8 6 12 16 19
28 13 14 14 6 17 21 20 16 16 30 25 31 34 34 36 39 39 37 34 32 30 29 32 33 35 38 34 34 30 29 28 27 27 26 23 19 19 19 17 16 13 12 12 16 17 14 14 20
16 2 24 15 2 9 16 19 20 23 21 27 32 39 38 37 39 41 41 40 38 35 33 34 35 37 38 35 35 35 33 28 27 27 28 24 28 21 20 19 19 20 21 25 23 8 12 10 25
6 37 34 16 3 11 14 21 14 13 21 22 34 40 40 40 41 44 46 46 45 42 39 37 39 41 41 36 35 35 31 29 27 26 28 27 24 23 24 24 22 33 3 19 16 18 23 30 33
32 13 19 22 18 15 11 31 20 14 5 8 19 24 35 45 45 47 51 51 49 48 46 45 45 45 41 41 36 34 31 30 30 29 27 28 29 27 28 24 37 37 23 14 15 20 32 48 46
18 13 18 21 22 8 13 12 24 45 18 6 11 16 28 39 44 46 51 55 54 52 50 50 53 53 45 47 40 44 36 32 31 27 33 34 34 34 27 31 30 24 17 21 26 36 40 35 38
18 13 18 17 27 27 27 15 14 35 23 14 9 3 18 31 41 48 55 57 55 52 52 51 55 54 53 51 50 43 42 30 27 31 30 34 31 32 27 23 28 31 30 31 30 42 30 20 28
13 26 27 25 26 13 19 17 25 25 23 26 33 28 14 22 32 40 44 47 53 49 52 52 56 63 61 53 55 54 40 39 24 24 31 18 17 24 28 29 32 37 39 34 33 33 36 35 31
21 32 14 15 13 15 20 15 20 23 22 21 20 26 25 17 17 29 38 39 48 51 51 49 48 51 44 57 56 60 58 41 39 35 29 22 23 23 29 30 35 38 41 40 31 25 21 29 27
25 20 15 16 19 21 10 3 7 13 13 10 18 12 11 15 11 19 25 36 38 38 35 48 52 50 47 36 55 53 54 36 41 41 29 26 26 25 23 24 29 27 28 28 19 15 22 25 24
7 16 28 20 29 22 8 12 15 18 13 23 30 26 23 9 13 10 15 9 18 21 34 40 48 52 55 43 56 64 40 36 46 43 16 31 31 31 41 47 42 22 20 17 22 19 17 23 17
22 24 24 13 14 16 16 21 5 16 24 24 26 38 16 10 10 8 12 16 17 20 25 33 39 42 43 45 46 53 42 26 11 29 31 8 22 25 41 34 38 37 29 29 23 20 20 24 19
8 25 17 22 12 21 21 14 21 21 20 24 31 32 26 19 9 10 13 14 18 19 19 24 37 44 49 54 64 62 64 22 28 35 42 35 44 47 39 27 28 28 22 21 20 20 22 23 22
20 27 27 20 22 22 22 27 8 2 15 21 33 23 20 15 5 11 14 16 18 21 23 26 34 43 49 62 61 60 60 38 48 60 54 54 50 39 33 35 27 20 24 23 24 22 21 21 23
Wind_Direction_850mb
310 320 288 265 254 147 67 112 96 106 116 91 91 351 48 25 8 63 135 141 144 145 157 150 145 145 142 144 146 150 160 161 157 147 138 137 137 131 126 117 113 108 105 108 109 121 132 121 121
274 262 263 293 24 352 95 85 108 87 97 108 111 120 64 65 70 125 129 143 140 147 147 146 141 148 146 140 139 146 147 155 162 156 143 138 131 123 117 112 106 110 116 106 103 99 111 112 113
272 271 274 130 243 42 95 85 86 95 128 152 110 35 32 94 116 130 140 139 136 138 152 172 141 146 143 140 140 143 146 147 146 146 143 140 123 121 119 123 120 127 122 105 102 101 103 103 102
302 246 250 327 68 78 93 96 114 125 134 163 113 93 90 127 122 138 139 140 140 142 155 163 147 148 141 141 143 149 148 149 150 145 141 133 128 124 115 118 115 120 125 109 103 96 95 96 97
290 267 271 92 88 85 79 86 112 124 131 140 168 117 119 123 129 137 141 142 142 146 150 158 148 146 146 146 152 150 148 147 145 148 144 137 141 139 127 133 132 132 127 120 112 100 94 91 92
246 263 298 124 94 107 95 99 108 100 125 118 117 123 127 141 143 144 144 145 147 149 145 154 148 150 153 161 150 153 150 155 153 151 147 146 134 128 133 131 132 133 130 129 122 107 93 71 60
269 219 119 110 118 112 94 5 99 109 125 142 138 135 137 151 154 152 150 149 152 154 155 158 157 159 161 156 159 160 158 150 151 153 159 152 144 145 137 129 128 129 127 125 121 115 109 85 70
251 270 111 139 136 106 111 86 89 94 77 123 162 146 161 159 158 156 154 155 158 160 161 161 168 161 160 168 167 164 162 162 167 167 162 153 144 140 124 119 119 120 120 120 116 98 88 88 27
244 267 253 83 46 116 142 122 94 91 122 147 71 144 152 159 159 159 161 163 165 166 167 167 173 162 164 171 171 169 165 166 162 164 161 145 136 131 146 133 140 125 115 87 34 5 339 357 68
151 273 90 48 14 112 156 119 112 134 156 134 136 112 144 159 165 168 171 172 172 172 172 174 166 173 166 175 194 166 177 171 161 166 174 139 161 162 160 195 159 131 110 51 4 349 338 342 287
101 81 62 52 91 123 130 106 164 97 219 125 147 146 154 162 172 177 179 177 177 177 177 176 176 178 168 176 178 175 184 181 183 178 179 156 187 192 173 223 198 5 354 5 347 330 332 296 305
350 81 95 145 140 137 146 124 118 63 51 116 151 158 162 169 174 177 183 180 180 180 182 181 181 181 179 182 178 182 181 187 187 192 178 190 166 191 179 197 191 210 244 299 334 322 299 291 282
69 121 145 135 164 126 130 184 90 119 90 125 150 162 168 175 176 179 182 185 185 185 184 185 186 186 184 183 189 184 190 188 186 200 202 184 180 192 210 194 198 230 259 295 323 315 307 284 280
99 200 139 156 158 155 189 169 219 131 155 143 161 173 177 179 181 180 185 185 186 189 190 189 190 187 183 188 187 189 190 198 189 197 211 186 189 221 209 235 228 259 260 276 289 267 270 293 314
249 189 163 170 172 174 243 230 197 136 169 164 175 181 185 188 187 187 187 183 187 190 191 193 191 191 187 188 189 190 195 192 192 188 203 212 206 229 197 237 252 270 273 288 343 333 301 293 294
236 186 44 286 189 158 252 205 257 145 176 177 187 187 192 193 194 193 189 189 188 190 190 190 191 196 192 194 193 189 191 191 194 196 211 210 210 203 231 226 249 255 264 247 273 315 291 289 286
294 128 247 219 198 168 240 316 142 157 191 192 185 193 198 198 200 195 192 190 190 189 191 190 191 195 195 197 195 189 191 186 198 199 204 234 215 226 222 226 246 262 226 226 258 319 303 311 312
231 49 281 269 291 198 242 268 282 178 183 216 195 196 201 205 202 198 198 195 192 191 193 194 195 191 199 198 187 193 200 199 198 205 199 209 220 220 226 224 230 243 245 242 237 250 276 273 307
14 321 21 290 141 289 262 259 261 206 193 208 203 194 203 209 205 202 202 200 197 195 192 194 195 196 197 196 194 193 197 206 209 212 211 217 211 219 237 219 236 255 219 234 249 286 319 300 273
258 36 278 59 69 304 293 321 275 219 206 219 212 199 200 206 212 204 203 203 203 201 199 196 196 201 199 200 200 200 205 210 213 220 220 220 222 222 230 236 233 251 273 267 264 281 283 291 288
325 10 4 331 312 261 284 354 153 132 290 211 246 239 210 206 207 204 204 207 207 206 204 203 202 209 209 194 203 207 212 220 219 221 220 234 227 226 231 231 240 243 243 249 254 295 298 291 291
165 5 321 329 305 174 236 169 25 321 137 162 244 252 249 219 214 208 204 207 213 212 211 208 208 211 214 203 203 204 210 217 226 231 228 205 218 237 234 239 237 246 213 256 276 290 297 310 291
28 325 299 291 280 94 266 311 180 218 36 54 72 267 263 251 229 218 204 210 215 216 215 214 218 212 210 219 200 212 206 213 222 222 223 229 238 247 244 238 250 252 262 272 284 282 263 297 281
313 273 253 239 247 120 56 339 92 56 36 27 15 358 349 294 241 235 224 208 214 210 213 217 214 222 220 219 223 206 216 213 230 224 233 230 242 260 245 246 251 259 261 265 283 266 256 275 270
236 286 268 245 220 66 48 313 19 54 52 42 20 8 357 332 265 238 238 231 205 214 215 217 212 222 227 213 225 218 208 212 230 236 247 229 221 223 247 250 247 249 254 260 259 238 237 275 270
306 344 305 313 323 346 264 279 39 82 113 93 21 29 3 352 296 259 235 229 226 185 202 212 211 214 224 239 233 213 214 229 235 230 221 228 221 247 275 269 251 246 243 230 233 249 230 268 259
305 260 1 306 267 288 320 23 300 103 180 17 6 345 358 11 336 293 240 232 223 231 222 216 221 222 224 233 226 224 227 220 242 243 272 306 263 247 274 270 251 256 246 281 278 273 248 232 226
260 325 296 259 286 293 326 312 315 3 347 5 333 328 357 346 310 263 235 232 233 230 229 218 209 213 215 200 208 217 216 188 248 306 235 48 276 272 280 261 257 236 233 270 253 215 208 190 183
217 238 202 256 306 288 283 303 13 29 350 324 320 329 3 334 289 254 229 227 225 228 230 220 212 209 206 208 209 207 207 212 240 197 197 221 250 271 256 246 240 232 246 236 218 207 193 190 192
282 285 293 292 293 289 309 301 44 210 313 325 322 4 350 333 252 231 235 239 244 238 223 210 221 219 214 215 213 203 197 219 216 221 228 243 245 245 228 225 243 247 229 217 204 205 212 216 218